Flag for Paraguay Weather past 2 weeks in Ciudad del Este, Paraguay

Now
77 °F

Broken clouds.


Feels Like: 78 °F
Forecast: 68 / 79 °F
Wind: 6 mph from North

Location: Foz Do Iguacu Aeroporto

Current Time: May 24, 2015 at 12:16:01 PM

Latest Report: May 24, 2015 at 11:00 AM


Visibility: N/A

Pressure: 29.89 "Hg

Humidity: 83%

Dew point: 72 °F

Location of Ciudad del EsteLocation

Historic Weather in Ciudad del Este — Graph

°F

Ciudad del Este temperature yesterday

Maximum temperature yesterday: 86 °F (at 1:00 PM)
Minimum temperature yesterday: 68 °F (at 3:00 AM)
Average temperature yesterday: 76 °F

Past Weeks' High & Low Weather Summary

 TemperatureHumidityPressure
High86 °F (May 23, 1:00 PM)100% (May 9, 11:00 PM)30.21 "Hg (May 9, 11:00 PM)
Low50 °F (May 12, 2:00 AM)52% (May 23, 1:00 PM)29.83 "Hg (May 23, 6:00 PM)
Average67 °F87%30.06 "Hg
* Reported May 9 11:00 AM — May 24 11:00 AM, Ciudad del Este, Weather by CustomWeather, © 2015

Note: Actual official high and low records may vary slightly from our data, if they occured in-between our weather recording intervals... More about our weather records

Advertising

Ciudad del Este weather history for previous 24 hours

 ConditionsComfort  
Time TempWeatherWind HumidityBarometerVisibility
11:00 AM
Sun, May 24
77 °FBroken clouds.6 mph83%29.89 "HgN/A
10:00 AM75 °FScattered clouds.10 mph89%29.92 "HgN/A
9:00 AM75 °FBroken clouds.8 mph89%29.92 "HgN/A
8:00 AM72 °FBroken clouds.2 mph94%29.89 "HgN/A
7:00 AM72 °FBroken clouds.6 mph94%29.89 "HgN/A
6:00 AM70 °FBroken clouds.5 mph100%29.86 "HgN/A
5:00 AM70 °FPassing clouds.6 mph100%29.83 "HgN/A
4:00 AM73 °FPassing clouds.9 mph83%29.83 "HgN/A
3:00 AM75 °FPassing clouds.13 mph78%29.83 "HgN/A
2:00 AM75 °FPassing clouds.12 mph78%29.83 "HgN/A
1:00 AM75 °FPassing clouds.13 mph78%29.83 "HgN/A
12:00 AM77 °FPassing clouds.13 mph74%29.86 "HgN/A
11:00 PM
Sat, May 23
77 °FPassing clouds.12 mph79%29.86 "HgN/A
10:00 PM77 °FClear.9 mph79%29.86 "Hg10 mi
9:00 PM75 °FClear.6 mph83%29.86 "Hg10 mi
8:00 PM77 °FClear.6 mph79%29.86 "Hg10 mi
7:00 PM75 °FClear.6 mph83%29.83 "Hg10 mi
6:00 PM77 °FClear.6 mph79%29.83 "Hg10 mi
5:00 PM81 °FClear.6 mph70%29.86 "Hg10 mi
4:00 PM82 °FClear.12 mph62%29.86 "Hg10 mi
3:00 PM86 °FSunny.15 mph55%29.86 "Hg10 mi
2:00 PM86 °FSunny.16 mph55%29.86 "Hg10 mi
1:00 PM86 °FSunny.17 mph52%29.89 "Hg10 mi
12:00 PM82 °FSunny.17 mph58%29.92 "Hg10 mi
Weather by CustomWeather, © 2015

See weather overviewHow to use our weather pages